St. Marys, AK

11:53 AM AKST on November 21, 2019 (GMT -0900)
Saint Mary's

Weather History for PASM - September, 2019

Change the Weather History Date:

Saturday, September 28, 2019

  Actual Average Record
Temperature  
Mean Temperature 46 °F -  
Max Temperature 46 °F 41 °F 52 °F (2016)
Min Temperature 44 °F 31 °F 24 °F (2004)
Degree Days  
Heating Degree Days 19    
Moisture  
Dew Point 46 °F    
Average Humidity 98    
Maximum Humidity 100    
Minimum Humidity 93    
Precipitation  
Precipitation 0.48 in - - ()
Sea Level Pressure  
Sea Level Pressure 29.81 in    
Wind  
Wind Speed 12 mph ()    
Max Wind Speed 18 mph    
Max Gust Speed 26 mph    
Visibility 7.1 miles    
Events Rain    
Averages and records for this station are not official NWS values.
T = Trace of Precipitation, MM = Missing Value Source: Averaged Metar Reports

Daily Weather History Graph

Daily Weather History Graph

Search for Another Location

Airport or City:

Astronomy

Sep. 28, 2019 Rise Set
Actual Time 8:52 AM AKDT 8:33 PM AKDT
Civil Twilight 8:08 AM AKDT 9:17 PM AKDT
Nautical Twilight 7:15 AM AKDT 10:10 PM AKDT
Astronomical Twilight 6:18 AM AKDT 11:06 PM AKDT
Moon 8:25 AM AKDT (9/28) 9:12 PM AKDT (9/28)
Length of Visible Light 13h 09m
Length of Day
11h 41m
New Moon, 0% of the Moon is Illuminated
Sep 28
New Moon
Oct 5
First Quarter
Oct 13
Full
Oct 21
Last Quarter
Oct 27
New

Hourly Weather History & Observations

Time (AKDT) Temp. Windchill Dew Point Humidity Pressure Visibility Wind Dir Wind Speed Gust Speed Precip Events Conditions
12:43 AM 46.4 °F 39.8 °F 44.6 °F 93% 30.01 in 8.0 mi SSE 16.1 mph 25.3 mph 0.02 in Rain Light Rain
1:02 AM 46.0 °F 39.6 °F 45.0 °F 96% 30.03 in 7.0 mi SE 15.0 mph 20.7 mph 0.02 in Rain Light Rain
2:02 AM 46.4 °F 40.1 °F 44.6 °F 93% 30.00 in 10.0 mi SSE 15.0 mph 26.5 mph 0.00 in   Overcast
2:40 AM 46.4 °F 40.7 °F 44.6 °F 93% 29.99 in 4.0 mi SE 12.7 mph 21.9 mph 0.01 in Rain Light Rain
3:02 AM 46.0 °F 40.6 °F 45.0 °F 96% 30.01 in 6.0 mi SE 11.5 mph 20.7 mph 0.01 in Rain Light Rain
4:02 AM 46.0 °F 39.6 °F 45.0 °F 96% 30.01 in 6.0 mi SE 15.0 mph 20.7 mph 0.00 in Rain Light Rain
6:02 AM 45.0 °F 38.9 °F 45.0 °F 100% 29.98 in 6.0 mi SE 12.7 mph 25.3 mph 0.01 in Rain Light Rain
7:02 AM 45.0 °F 38.5 °F 45.0 °F 100% 29.98 in 4.0 mi SE 13.8 mph 21.9 mph 0.01 in Rain Light Rain
8:02 AM 45.0 °F 38.2 °F 45.0 °F 100% 29.97 in 9.0 mi SE 15.0 mph - 0.01 in Rain Light Rain
9:02 AM 44.6 °F 38.1 °F 44.6 °F 100% 29.93 in 5.0 mi ESE 13.8 mph - 0.04 in Rain Light Rain
10:02 AM 45.0 °F 38.2 °F 45.0 °F 100% 29.94 in 5.0 mi ESE 15.0 mph - 0.06 in Rain Light Rain
11:02 AM 46.0 °F 38.8 °F 45.0 °F 96% 29.93 in 3.0 mi ESE 18.4 mph 21.9 mph 0.02 in Rain Light Rain
11:15 AM 46.4 °F 39.8 °F 44.6 °F 93% 29.91 in 4.0 mi ESE 16.1 mph 23.0 mph 0.00 in Rain Light Rain
12:02 PM 46.0 °F 39.3 °F 46.0 °F 100% 29.92 in 4.0 mi ESE 16.1 mph 23.0 mph 0.02 in Rain Light Rain
1:02 PM 46.9 °F - 46.0 °F 97% 29.90 in 6.0 mi ESE 15.0 mph 25.3 mph 0.02 in Rain Light Rain
2:02 PM 46.9 °F - 46.9 °F 100% 29.86 in 6.0 mi ESE 13.8 mph 23.0 mph 0.03 in Rain Light Rain
3:02 PM 48.0 °F - 46.9 °F 96% 29.84 in 6.0 mi ESE 16.1 mph 20.7 mph 0.01 in Rain Light Rain
4:02 PM 48.0 °F - 46.9 °F 96% 29.81 in 10.0 mi ESE 12.7 mph 19.6 mph 0.05 in Rain Light Rain
4:25 PM 48.2 °F - 46.4 °F 93% 29.77 in 10.0 mi ESE 12.7 mph - 0.01 in Rain Light Rain
5:02 PM 48.0 °F - 46.9 °F 96% 29.79 in 7.0 mi ESE 11.5 mph - 0.05 in Rain Light Rain
5:27 PM 46.4 °F 41.1 °F 46.4 °F 100% 29.75 in 6.0 mi ESE 11.5 mph - 0.03 in Rain Light Rain
5:40 PM 48.2 °F - 46.4 °F 93% 29.74 in 4.0 mi ESE 9.2 mph - 0.04 in Rain Light Rain
5:54 PM 46.4 °F 41.1 °F 46.4 °F 100% 29.74 in 7.0 mi ESE 11.5 mph - 0.05 in Rain Light Rain
6:02 PM 46.4 °F 41.5 °F 46.4 °F 100% 29.73 in 8.0 mi ESE 10.4 mph - 0.05 in Rain Light Rain
7:02 PM 46.9 °F - 46.9 °F 100% 29.70 in 10.0 mi East 10.4 mph - 0.08 in Rain Light Rain
7:52 PM 46.4 °F 41.9 °F 46.4 °F 100% 29.65 in 10.0 mi East 9.2 mph - 0.01 in Rain Light Rain
7:59 PM 46.4 °F 41.9 °F 46.4 °F 100% 29.65 in 10.0 mi East 9.2 mph - 0.01 in Rain Light Rain
8:02 PM 46.9 °F - 46.0 °F 97% 29.68 in 10.0 mi East 8.1 mph - 0.01 in Rain Light Rain
8:36 PM 46.4 °F 41.9 °F 46.4 °F 100% 29.63 in 6.0 mi East 9.2 mph - 0.02 in Rain Light Rain
8:46 PM 46.4 °F 41.5 °F 46.4 °F 100% 29.63 in 6.0 mi East 10.4 mph - 0.02 in Rain Light Rain
9:02 PM 46.4 °F 41.9 °F 46.4 °F 100% 29.62 in 7.0 mi East 9.2 mph - 0.03 in Rain Light Rain
10:02 PM 46.9 °F - 46.0 °F 97% 29.62 in 10.0 mi East 4.6 mph - 0.06 in Rain Light Rain
10:21 PM 46.4 °F 45.2 °F 46.4 °F 100% 29.59 in 10.0 mi NE 3.5 mph - 0.00 in Rain Light Rain
10:29 PM 46.4 °F 45.2 °F 46.4 °F 100% 29.58 in 10.0 mi NNE 3.5 mph - 0.01 in Rain Light Rain
11:02 PM 46.9 °F - 46.0 °F 97% 29.59 in 10.0 mi NE 4.6 mph - 0.01 in Rain Light Rain